CZ-2C R/B (31114 NORAD) Tracking and Keplerian Element Data

This shows tracking and keplerian element data for the satellite.

Feedback or suggestion? Click here.




ElementValue
Catalog31114
NameCZ-2C R/B
Epoch Orbit58419
Epoch Day202.71792534
Epoch Year2018
RAAN88.6619
Inclination98.3573
Eccentricity0.0060551
Argument of Perigee134.3271
Mean Anonmoly226.2893
Mean Motion14.19275074
Decay Rate-2.3E-07
L11 31114U 07010B 18202.71792534 -.00000023 00000-0 78650-5 0 9996
L22 31114 98.3573 88.6619 0060551 134.3271 226.2893 14.19275074584192

Live tracking and technical data element details for CZ-2C R/B (NORAD 31114). CZ-2C R/B can be tracked NOW for your location showing map with azimuth and elevation plus other details from your city location.

Track the satellite on the map from your city or location and see movement details for azimuth, elevation, latitude, longitude, range, height, and movement on the map or in text.







IsCatalogInMostPopularTable: catalog: 31114, numindb: 25
Update: records affected: 1



GetName: 31114 CZ-2C R/B

Hit Count: updated at: Mon, 23 Jul 2018 07:40:06 GMT